This demonstration page uses our WeatherBlox Daily Observations layout. Learn more.

Left ArrowRight Arrow

44.8408, -93.29828

Hourly Observations for April 16, 2019

Temp ( °F °C ) Dew Point ( °F °C ) Humidity (%) Winds ( mph kmh ) Pressure ( in mb ) Visibility ( mi km ) Precip ( " mm )
12:53 am 00:53 Mostly Clear 46 7.8 34 1.1 63 63 ESE 6 9 29.81 1009 10 16 0.00 0.00
1:53 am 01:53 Mostly Clear 45 7.2 33 0.6 63 63 ENE 3 6 29.81 1010 10 16 0.00 0.00
2:53 am 02:53 Mostly Cloudy 41 5 33 0.6 73 73 Calm 29.82 1010 10 16 0.00 0.00
3:53 am 03:53 Mostly Cloudy 40 4.4 33 0.6 77 77 Calm 29.83 1010 10 16 0.00 0.00
4:53 am 04:53 Mostly Cloudy 39 3.9 33 0.6 79 79 NW 5 7 29.86 1011 10 16 0.00 0.00
5:53 am 05:53 Partly Cloudy 39 3.9 31 -0.6 73 73 NNW 3 6 29.87 1012 10 16 0.00 0.00
6:53 am 06:53 Mostly Sunny 38 3.3 31 -0.6 76 76 NNW 5 7 29.90 1013 10 16 0.00 0.00
7:53 am 07:53 Mostly Sunny 42 5.6 32 0 68 68 N 6 9 29.92 1013 10 16 0.00 0.00
8:53 am 08:53 Partly Cloudy 47 8.3 32 0 56 56 N 5 7 29.93 1014 10 16 0.00 0.00
9:53 am 09:53 Partly Cloudy 54 12.2 34 1.1 47 47 NNE 8 13 29.93 1014 10 16 0.00 0.00
10:53 am 10:53 Mostly Sunny 59 15 34 1.1 39 39 N 5 7 29.94 1014 10 16 0.00 0.00
11:53 am 11:53 Mostly Sunny 62 16.7 35 1.7 37 37 VRB 5 7 29.94 1014 10 16 0.00 0.00
12:53 pm 12:53 Mostly Sunny 63 17.2 33 0.6 33 33 Calm 29.94 1014 10 16 0.00 0.00
1:53 pm 13:53 Mostly Cloudy 65 18.3 30 -1.1 27 27 undefined N/A 29.93 1014 10 16 0.00 0.00
2:53 pm 14:53 Mostly Cloudy 67 19.4 28 -2.2 23 23 NW 5 7 29.93 1013 10 16 0.00 0.00
3:53 pm 15:53 Mostly Cloudy 68 20 28 -2.2 22 22 ESE 7 11 29.92 1013 10 16 0.00 0.00
4:53 pm 16:53 Mostly Cloudy 66 18.9 26 -3.3 22 22 VRB 3 6 29.91 1013 10 16 0.00 0.00
5:53 pm 17:53 Mostly Cloudy 66 18.9 26 -3.3 22 22 SSE 5 7 29.91 1013 10 16 0.00 0.00
6:53 pm 18:53 Cloudy 65 18.3 26 -3.3 23 23 ESE 6 9 29.93 1014 10 16 0.00 0.00
7:53 pm 19:53 Cloudy 63 17.2 28 -2.2 27 27 SE 8 13 29.93 1014 10 16 0.00 0.00
8:53 pm 20:53 Cloudy 61 16.1 30 -1.1 31 31 SSE 6 9 29.94 1014 10 16 0.00 0.00
9:53 pm 21:53 Cloudy 57 13.9 31 -0.6 37 37 SE 6 9 29.94 1014 10 16 0.00 0.00
10:53 pm 22:53 Cloudy 58 14.4 30 -1.1 35 35 SE 5 7 29.94 1014 10 16 0.00 0.00
11:53 pm 23:53 Cloudy 54 12.2 31 -0.6 42 42 ESE 7 11 29.93 1014 10 16 0.00 0.00

Powered by AerisWeather